Wind_Gust
24 27 31 33 29 29 26 27 24 12 19 18 22 21 20 23 24 17 17 15 9 20 24 26 22 17 13 12 13 11 10 11 11 11 12 14 15 15 16 15 16 14 14 12 11 11 10 10 11 10 9 11 11 11 11 13 12 11 11 9 10 12 14 12 11 10 12 12 11 10 15 15 14 16 15 16 15 14 14 15 16 16 15 14 15 16
25 29 29 26 23 25 26 24 20 13 19 19 21 22 22 24 23 22 20 15 14 17 21 14 17 14 12 13 15 13 13 14 12 12 13 14 14 13 15 15 16 17 14 11 10 9 8 9 9 8 10 11 12 11 10 11 12 12 11 11 10 9 10 12 13 13 13 12 14 13 14 12 15 16 17 16 15 18 15 17 17 16 14 16 17 17
29 33 25 25 24 23 23 21 17 17 17 19 23 23 22 25 19 18 17 13 14 17 22 21 21 16 12 12 13 15 13 12 10 10 9 10 12 14 15 18 15 17 14 12 10 8 9 9 8 10 10 11 11 12 11 10 10 11 11 10 11 11 12 10 9 11 12 10 12 14 14 16 17 14 14 14 14 14 15 18 18 17 18 19 19 19
29 30 24 24 23 23 24 24 22 22 19 23 24 26 26 23 23 26 19 16 11 17 17 22 20 16 13 12 14 14 13 13 12 12 14 14 11 11 14 14 14 14 15 12 10 9 9 8 8 9 10 11 11 12 11 11 10 10 9 10 11 8 8 10 12 13 13 12 12 12 13 12 15 16 16 16 16 14 16 18 19 18 18 17 17 15
26 18 25 23 24 27 25 24 25 28 26 23 23 22 25 22 26 16 28 17 11 10 10 19 19 19 17 18 17 14 12 14 15 14 16 16 14 12 12 12 10 12 11 11 9 9 9 8 8 8 10 10 11 11 11 10 11 11 11 10 9 10 11 9 8 9 10 10 11 13 13 13 13 14 16 15 17 17 17 18 18 17 16 17 16 15
26 19 23 25 26 28 29 29 31 28 28 25 20 21 16 17 24 13 25 21 23 23 20 24 26 26 20 16 15 16 18 15 14 17 18 17 18 17 16 14 12 10 8 8 8 9 9 8 9 9 9 9 10 11 11 11 12 11 11 9 9 9 11 10 9 10 11 11 12 13 14 15 16 17 17 19 17 16 17 19 17 16 17 17 16 17
24 20 26 29 28 28 29 29 28 28 28 25 30 21 15 18 20 19 21 25 26 28 28 18 25 20 21 22 18 15 19 18 16 20 19 19 19 18 17 15 13 11 11 10 11 11 10 9 10 11 10 12 13 12 12 11 12 11 11 10 8 9 8 9 10 11 12 12 14 14 15 15 18 18 17 15 15 15 14 14 15 16 15 16 16 16
21 24 25 27 30 31 29 32 32 31 29 28 21 26 18 17 18 18 21 23 23 16 18 16 28 21 25 25 17 15 16 19 19 20 20 20 19 19 16 15 13 13 11 11 11 10 9 9 10 12 12 12 13 12 12 11 9 8 8 8 9 9 10 10 12 12 14 15 13 14 15 15 16 16 16 15 15 14 13 14 14 14 15 15 15 15
24 26 27 30 29 33 33 27 25 29 32 21 21 25 25 20 18 19 21 23 17 16 25 26 25 25 22 24 17 18 20 19 18 18 19 19 19 19 17 16 14 13 13 12 13 13 12 12 12 12 14 13 13 13 12 10 9 8 7 8 9 9 9 9 11 13 14 14 14 15 15 16 17 18 19 18 16 16 16 16 15 15 15 15 16 16
27 28 31 29 31 32 24 25 25 30 33 14 16 18 21 20 19 21 23 23 16 18 23 26 29 30 23 22 24 19 20 22 20 17 19 19 19 18 17 16 16 14 14 15 16 15 13 12 12 12 12 13 13 11 10 10 9 8 7 7 9 12 11 11 12 13 14 16 16 16 16 17 17 19 22 20 18 16 15 16 15 14 15 15 15 16
19 20 26 33 35 26 26 21 25 28 22 19 19 20 20 19 20 19 22 24 22 25 27 22 26 29 25 26 27 28 22 20 19 18 17 17 17 17 17 16 17 17 18 18 17 17 14 13 13 13 14 13 13 12 11 11 10 9 7 6 8 11 12 11 12 14 15 16 17 18 17 18 19 19 19 20 19 18 17 16 16 15 16 15 16 15
20 19 24 31 22 24 20 21 20 23 20 22 26 27 24 21 18 21 24 22 25 27 25 24 24 24 26 27 21 17 16 13 14 17 16 16 17 16 15 16 17 17 18 18 18 17 16 15 15 14 14 13 13 12 12 10 9 8 8 8 10 11 12 13 14 13 13 14 17 17 17 18 19 18 19 19 19 18 18 17 17 15 15 15 15 15
25 28 23 20 18 20 27 25 23 18 20 27 25 28 30 30 30 31 33 35 32 27 25 21 22 20 22 17 27 20 17 16 13 16 16 17 19 19 18 18 19 18 17 18 18 17 16 15 15 14 13 13 13 13 12 12 11 10 10 9 10 13 14 14 13 12 12 14 15 16 17 17 17 17 19 20 19 16 16 17 17 17 17 16 17 17
24 22 27 23 22 26 26 32 31 31 30 29 31 31 33 34 33 29 33 28 28 24 14 20 18 24 21 20 20 21 17 16 17 17 16 18 18 18 18 19 19 20 19 18 18 17 17 16 16 15 14 13 13 13 13 12 12 11 12 12 13 14 13 13 12 11 11 12 14 15 16 17 17 18 19 20 19 15 15 16 16 15 16 17 19 16
29 31 31 30 32 27 33 28 28 24 29 31 23 30 29 27 36 30 36 36 33 29 21 15 25 30 26 21 17 19 16 16 17 19 19 19 18 17 18 19 21 19 18 19 19 19 18 18 17 17 17 16 16 16 15 15 14 14 14 15 16 16 14 14 13 11 11 11 11 12 14 14 15 18 19 19 17 15 14 16 16 15 19 21 21 21
30 26 25 29 18 32 30 28 24 26 27 29 28 26 30 30 20 27 12 24 28 27 23 24 24 15 18 16 16 18 19 18 17 19 18 18 17 17 19 21 20 18 19 18 19 20 19 19 18 18 18 18 18 17 16 16 15 15 16 16 17 17 17 16 13 13 12 10 11 11 13 13 13 14 15 16 15 12 14 18 20 20 21 22 20 19
29 31 27 32 13 29 30 29 28 27 35 31 26 33 26 12 17 15 8 14 8 17 23 15 16 20 23 17 17 18 19 19 18 18 20 19 19 20 19 18 17 17 17 18 18 19 20 20 19 18 17 18 19 19 19 18 17 17 17 17 17 17 17 17 16 14 10 9 11 13 13 13 12 14 14 15 14 14 22 21 23 24 23 21 20 20
24 23 22 31 27 22 26 25 20 29 24 29 35 28 15 11 12 21 23 15 23 28 19 18 25 24 25 27 25 23 21 22 20 18 20 18 19 18 16 17 16 16 16 16 18 19 20 20 20 20 19 19 20 19 18 19 18 18 17 17 17 17 17 16 16 14 12 13 14 15 15 15 17 18 17 16 17 19 23 25 25 23 18 18 22 22
21 27 25 28 30 24 12 24 24 17 15 25 29 25 33 27 19 22 21 26 28 28 19 24 19 23 29 22 29 26 26 24 21 20 20 20 18 16 16 16 16 15 17 18 17 18 19 19 17 17 17 18 18 18 19 18 18 20 19 19 19 20 18 17 16 14 14 14 16 15 15 16 18 18 17 17 19 20 22 24 22 18 20 19 21 21
23 23 26 20 27 26 26 29 32 31 20 14 18 31 27 17 23 23 22 18 26 21 17 20 19 26 25 23 28 30 29 26 24 21 21 21 18 16 15 15 17 16 16 15 16 17 16 15 15 15 16 17 17 17 17 18 20 20 19 19 19 20 19 18 18 17 14 14 14 15 16 17 17 15 16 17 19 20 23 22 21 21 21 21 20 20
23 17 22 29 14 26 35 37 32 32 32 29 25 31 32 24 14 20 20 23 27 22 22 22 25 23 20 15 23 27 26 26 24 23 21 21 18 15 15 16 16 14 13 14 15 16 15 14 14 15 16 17 18 19 19 19 19 20 20 20 20 20 19 18 18 17 16 16 15 14 15 16 14 15 17 17 20 19 19 20 20 21 21 21 21 22
21 22 20 28 29 31 28 30 19 30 30 26 28 29 30 28 25 28 23 16 15 24 24 23 22 21 15 10 16 26 26 27 24 24 22 18 17 17 18 17 15 14 14 15 15 13 14 14 15 17 18 18 19 20 20 20 20 19 19 21 19 20 20 19 19 18 18 17 17 15 15 15 13 14 15 19 19 18 19 20 22 21 20 21 22 22
14 19 22 26 32 31 19 11 10 13 14 21 27 25 27 25 24 28 24 24 19 12 13 18 19 17 15 11 16 26 26 25 25 25 23 20 18 17 17 17 16 15 14 14 13 13 14 15 16 17 18 17 18 20 20 19 20 20 19 19 19 19 19 19 19 18 18 18 18 17 16 16 13 14 14 15 15 14 16 19 19 18 21 22 22 22
6 22 27 25 21 18 15 12 11 9 15 18 21 19 26 30 25 26 23 23 23 16 19 17 16 17 13 12 23 25 24 23 23 24 26 22 19 17 16 16 16 15 14 12 12 13 13 13 14 16 17 19 19 19 21 21 20 20 20 20 20 19 20 19 19 20 18 18 18 16 15 14 13 14 15 14 13 14 15 17 17 18 19 19 19 22
22 17 22 28 29 25 21 19 21 15 20 27 29 21 15 17 13 14 14 21 24 24 21 19 21 16 19 16 22 24 24 23 22 21 22 24 20 19 18 16 16 15 14 13 14 13 14 15 16 18 19 19 19 20 20 21 20 19 19 19 20 20 19 19 19 19 19 17 18 16 14 13 13 14 13 13 12 14 16 17 16 17 20 20 20 21
15 9 21 30 30 32 34 35 37 28 28 19 14 17 13 18 20 21 23 22 23 17 16 21 15 19 20 17 19 22 23 23 22 21 19 19 19 20 19 17 16 15 14 12 13 14 16 15 16 18 17 18 18 18 19 19 19 19 19 19 18 19 19 20 19 18 18 17 17 17 16 14 13 13 14 13 13 13 14 15 16 17 19 20 22 21
15 10 12 12 22 22 14 12 15 12 24 25 13 16 14 9 11 18 18 20 24 19 21 15 19 24 21 22 20 22 23 23 21 20 21 21 19 19 19 18 15 15 15 14 14 13 14 15 16 15 16 17 17 17 17 18 19 20 20 20 20 21 21 21 20 19 19 18 16 16 15 16 15 16 14 14 14 13 13 14 14 17 19 20 21 22
15 14 12 18 19 13 10 8 10 11 18 17 20 14 11 10 9 15 19 21 18 21 22 16 22 27 25 24 22 21 21 22 21 20 19 19 19 20 20 18 14 16 16 14 15 15 15 14 14 16 16 17 18 18 18 18 19 20 20 20 21 21 21 22 20 20 20 18 17 17 17 16 15 14 13 13 15 14 12 13 14 17 18 19 21 22
22 15 9 14 15 15 11 10 10 17 16 14 13 14 13 11 12 18 14 12 16 20 16 18 22 17 25 24 22 20 20 20 22 20 18 19 21 20 20 18 16 17 16 16 15 14 14 14 14 15 16 17 17 18 18 19 19 19 20 20 20 19 20 20 19 19 19 19 18 19 19 18 16 13 11 11 11 11 11 13 14 15 17 18 20 21
18 11 12 15 21 18 15 13 9 16 17 17 16 15 13 13 13 13 14 9 11 13 12 26 23 20 17 24 21 21 20 24 23 20 19 19 20 21 21 18 15 16 16 16 14 12 12 13 14 15 16 17 18 19 19 19 20 20 21 20 19 18 18 19 18 19 19 19 19 18 18 18 17 15 12 10 10 10 10 11 12 13 16 19 16 16
12 11 17 18 17 16 15 11 11 13 14 21 16 15 14 15 17 16 15 13 12 14 18 25 25 17 12 16 23 21 22 22 23 21 19 18 19 19 19 17 15 15 15 14 12 12 13 13 14 15 16 17 18 18 18 18 18 18 18 18 19 18 18 17 18 18 19 20 19 19 19 18 18 16 13 12 12 11 11 10 12 13 16 15 14 12
10 14 13 18 16 10 11 13 13 16 18 21 18 16 16 12 13 11 12 11 9 17 21 20 20 18 15 17 20 20 21 20 21 20 18 18 17 18 18 16 15 14 14 13 12 12 13 14 15 16 16 16 17 17 18 18 18 18 18 18 18 18 18 18 18 19 20 21 22 21 20 20 18 17 16 15 13 12 11 11 10 11 12 12 11 11
16 26 18 17 17 13 13 10 15 16 16 14 10 9 11 13 14 14 14 13 15 16 24 17 18 20 24 20 23 19 20 20 20 18 20 19 17 17 17 15 14 14 13 13 13 12 13 13 13 13 15 15 17 17 18 19 18 18 18 18 17 17 17 19 19 20 20 22 23 23 22 21 19 18 17 18 17 15 12 13 13 12 12 11 11 10
17 26 19 16 13 16 15 12 12 19 21 18 13 7 10 11 8 11 12 13 17 17 17 17 21 23 22 20 21 22 19 18 18 16 15 18 19 17 15 14 14 13 13 12 12 13 12 12 12 13 14 14 15 16 15 15 17 17 16 17 17 16 17 19 21 21 21 22 22 23 23 21 20 19 18 18 17 15 14 13 14 13 11 11 12 11
18 18 16 15 16 18 13 10 17 19 16 8 11 6 6 7 10 15 14 13 13 14 17 21 20 20 18 18 20 22 23 22 21 20 17 15 15 16 15 14 13 12 12 13 13 12 12 12 11 11 12 14 15 14 15 17 17 16 17 17 18 18 18 20 20 23 22 21 21 22 24 22 21 19 18 17 16 15 15 14 15 15 14 13 13 12
16 16 17 13 17 20 18 21 23 16 10 7 8 9 8 11 14 16 15 11 11 13 17 22 19 20 21 22 22 23 25 26 25 20 16 15 14 14 15 14 13 12 12 12 12 12 12 12 12 12 12 13 14 15 16 17 17 17 18 18 19 18 19 20 21 22 21 20 20 22 23 22 21 20 19 17 16 17 17 16 15 14 12 12 13 12
17 17 16 16 9 18 17 16 11 10 11 10 8 12 17 14 17 12 6 14 12 13 15 21 20 20 21 21 23 24 23 24 24 20 16 15 14 14 13 13 11 11 12 11 11 12 11 12 12 11 11 11 15 17 17 16 17 17 19 20 20 20 21 21 22 23 23 21 20 22 23 22 22 21 20 18 18 18 17 17 17 14 11 16 12 12
11 11 10 15 10 11 19 18 17 14 16 13 10 13 11 8 8 8 9 15 12 13 16 22 23 21 20 20 21 22 20 20 17 13 12 13 14 14 13 14 11 11 11 11 11 12 12 12 11 10 10 13 17 17 15 16 16 17 19 20 20 21 23 24 24 24 23 23 22 22 21 22 22 22 20 19 19 18 17 17 16 16 15 15 14 15
17 17 6 13 15 11 16 20 20 18 13 9 16 14 13 11 9 9 10 13 17 16 19 20 23 23 23 24 23 18 18 15 11 12 12 13 14 13 14 13 13 13 13 12 12 13 14 13 12 12 14 18 19 17 16 15 17 18 20 20 20 21 23 24 24 26 25 23 22 21 21 21 22 22 21 20 19 18 17 17 17 17 18 17 18 20
12 11 12 15 11 17 15 18 18 13 12 11 16 14 13 11 9 12 16 22 14 16 18 21 23 23 22 22 21 13 9 13 18 17 15 15 15 14 13 13 13 14 14 13 13 14 14 12 13 17 17 17 15 14 17 16 19 19 20 21 20 23 23 23 23 24 24 22 22 22 22 21 21 22 21 20 20 20 19 17 17 17 19 19 19 18
12 10 11 13 16 13 9 13 13 13 11 12 15 13 13 10 11 15 18 16 16 17 16 18 20 20 22 21 16 11 11 15 24 20 16 16 18 17 15 12 12 13 14 14 13 9 14 15 16 15 15 15 15 16 16 17 19 21 20 20 22 23 21 20 20 23 23 23 24 24 24 22 21 22 22 21 19 20 21 20 19 18 17 18 19 21
6 7 6 8 14 17 16 16 10 16 10 14 12 12 10 9 13 10 13 9 19 18 17 19 21 19 19 16 17 21 23 25 25 22 19 17 17 17 15 13 13 14 13 12 11 12 13 15 15 16 16 16 17 16 16 17 20 20 20 21 23 20 20 20 21 22 24 26 26 26 25 25 24 23 23 23 22 23 22 22 21 20 19 18 19 24
10 14 17 16 11 10 10 12 11 14 8 12 17 14 9 8 12 12 16 16 17 20 21 20 20 19 20 24 23 25 25 24 23 22 20 19 17 16 14 12 13 13 13 13 13 13 13 15 16 16 15 15 15 15 15 16 18 19 19 22 19 19 19 19 20 22 24 27 28 27 26 27 26 23 20 22 23 23 23 22 23 24 21 21 22 22
13 14 16 13 12 15 18 19 14 16 18 13 15 15 15 17 13 15 18 21 19 21 20 20 18 18 22 27 26 24 23 24 22 21 20 19 18 16 13 13 12 11 12 12 11 11 10 13 15 15 15 16 16 16 16 18 20 20 21 20 19 18 19 20 21 21 23 26 29 29 29 27 26 26 24 22 21 23 25 26 24 25 26 25 24 22
16 14 17 11 11 10 13 13 10 10 14 13 14 15 14 12 11 13 16 20 22 21 19 22 21 21 23 26 25 25 25 21 22 21 22 20 18 15 13 11 10 10 10 11 11 12 12 14 14 16 18 18 17 16 17 18 21 21 22 20 19 19 19 20 21 22 23 23 25 28 28 29 29 29 27 24 23 23 22 23 22 25 23 24 24 25
10 12 8 13 14 17 18 15 12 12 13 14 14 13 13 13 13 16 18 21 18 22 21 24 23 24 24 24 29 23 25 24 23 22 21 19 18 14 11 11 11 10 11 12 12 13 14 15 16 18 19 19 18 17 17 18 19 20 20 18 19 19 19 20 21 23 25 25 25 26 26 26 27 28 29 27 26 23 21 21 22 23 22 24 25 24
10 9 10 13 17 13 9 9 12 12 12 12 15 13 12 12 15 16 18 19 21 22 23 23 25 24 23 23 25 27 25 23 24 23 20 19 18 15 13 13 13 13 14 15 15 14 16 15 18 19 18 18 17 17 17 17 18 19 18 19 19 20 20 21 22 22 22 23 25 25 26 26 26 25 26 25 26 26 24 22 21 22 22 21 21 22
13 12 14 14 14 10 12 12 12 11 12 11 11 14 16 16 17 16 19 21 24 23 24 25 24 24 23 26 26 27 26 24 24 23 22 21 19 16 14 13 13 14 15 16 16 15 16 18 17 18 18 20 20 19 19 19 19 19 19 20 20 21 22 22 21 22 23 23 22 23 24 25 15 22 25 25 26 24 25 24 22 21 20 19 18 19
15 15 12 16 14 14 14 14 15 14 14 12 11 11 14 17 20 21 22 25 25 26 25 23 22 23 24 25 25 27 26 24 23 24 24 22 19 17 16 15 13 14 15 16 16 15 17 17 19 18 19 20 20 21 21 20 18 18 17 18 20 20 21 22 20 21 21 21 23 23 21 22 22 24 24 25 25 26 25 22 21 23 21 20 17 14
16 15 18 18 18 14 17 18 22 18 14 13 12 14 16 19 23 25 24 26 26 26 26 26 24 23 24 23 24 26 27 26 24 23 23 22 18 16 15 15 14 13 14 13 14 14 16 17 19 20 20 21 20 21 21 20 20 18 18 17 18 18 19 20 22 23 23 22 21 21 21 20 22 22 22 23 24 24 25 20 22 21 23 21 17 20
9 15 21 17 15 16 16 22 14 15 21 17 17 17 18 19 23 25 25 25 25 24 24 26 28 26 24 24 23 24 25 27 26 25 24 23 20 17 17 15 14 14 15 14 16 17 18 19 19 20 20 20 19 20 20 20 20 19 18 17 18 19 19 19 20 22 23 23 22 20 20 21 22 22 22 23 23 23 24 23 25 20 20 18 18 20
Wind_Speed
10 11 13 15 13 15 15 16 14 5 7 9 12 11 9 10 11 8 9 7 3 10 13 14 13 9 5 3 3 2 3 3 3 4 4 5 6 6 7 6 6 6 7 6 5 4 4 4 3 3 3 5 5 6 6 7 7 6 5 4 4 4 3 2 3 3 4 5 4 2 3 6 6 6 5 5 5 5 5 6 7 7 6 6 7 6
11 13 14 14 13 15 16 15 13 5 11 10 11 12 9 12 10 11 10 7 6 7 10 7 8 6 4 4 4 2 5 6 5 5 5 6 6 5 6 7 8 8 6 5 4 3 3 3 4 3 4 6 6 5 5 6 7 6 6 5 5 3 3 4 4 4 5 5 5 3 5 5 6 7 6 6 5 6 6 8 8 6 6 6 6 6
12 14 13 15 14 14 14 13 9 8 9 10 10 10 9 9 8 9 9 6 6 7 8 11 10 6 4 4 5 4 4 4 2 1 0 3 4 5 6 7 8 9 6 5 4 3 2 2 3 4 5 5 6 6 6 6 6 6 5 4 4 3 2 3 4 4 4 3 4 5 5 7 7 6 5 5 5 6 6 7 6 6 7 7 7 7
12 13 14 14 13 14 14 15 13 11 9 10 10 11 11 10 10 10 9 9 4 5 6 12 10 6 5 5 6 4 4 5 5 4 4 1 1 3 6 6 6 6 7 5 4 3 3 2 2 4 4 5 6 6 6 6 5 4 4 4 5 3 3 4 5 4 5 6 6 6 6 6 7 6 5 6 6 6 7 8 7 7 6 7 7 7
12 8 15 13 14 16 15 14 15 13 11 12 12 10 10 12 12 7 12 8 3 2 2 10 7 7 7 8 7 5 4 6 6 6 6 6 4 4 4 5 4 3 3 4 4 3 3 3 3 3 5 4 5 5 6 5 5 4 6 5 4 1 1 1 2 3 3 4 4 5 6 6 6 7 5 6 7 7 8 8 8 8 7 8 8 7
13 10 13 14 15 17 16 15 17 15 12 11 12 11 8 9 15 4 15 11 9 9 9 13 9 9 9 7 6 6 7 6 6 6 8 7 7 7 7 7 6 4 2 1 3 3 3 3 4 4 4 4 5 6 6 6 6 5 5 4 4 3 3 3 4 4 4 4 6 6 6 6 6 7 7 8 7 7 7 8 7 8 7 7 8 7
10 11 14 16 16 17 18 15 17 17 12 11 12 12 7 9 12 11 12 12 10 10 13 9 10 6 8 11 9 6 7 9 7 7 8 8 7 8 7 6 4 4 5 5 5 4 5 4 5 5 5 7 7 7 6 6 6 6 5 5 3 2 2 4 4 5 5 5 6 7 7 7 7 7 6 5 5 5 4 5 5 6 6 7 8 7
9 14 15 16 18 17 15 15 16 18 12 10 12 16 10 9 10 9 11 11 9 6 8 8 11 7 9 10 8 7 8 10 9 9 9 9 10 9 8 7 6 5 4 4 4 4 4 4 5 6 7 6 7 6 6 6 4 4 3 3 4 3 3 3 3 5 6 7 6 7 8 7 7 6 5 6 5 5 4 4 5 5 6 7 7 7
13 13 16 18 17 14 15 14 15 18 13 5 12 16 15 11 10 11 10 10 8 6 10 11 14 9 8 9 9 9 11 10 9 8 9 9 10 10 9 8 7 6 6 5 6 6 6 6 6 7 8 7 7 6 6 5 4 3 2 1 1 1 2 3 5 6 6 6 7 7 7 7 7 7 6 5 5 5 5 6 5 5 5 6 7 8
11 16 18 18 15 14 13 14 14 18 15 6 8 10 11 11 10 11 9 10 6 6 9 13 14 10 8 9 10 9 10 10 8 8 9 9 9 9 8 8 8 7 7 7 8 8 7 6 6 7 6 7 7 6 5 5 4 3 2 2 1 2 3 4 4 6 7 9 8 8 8 9 8 6 6 6 6 6 5 6 5 5 5 5 6 7
9 12 16 14 16 13 14 12 14 17 13 9 9 10 9 8 8 8 9 9 9 9 12 13 16 14 8 11 11 12 8 7 8 8 8 8 9 9 9 8 7 7 8 8 9 8 8 7 7 7 8 7 6 6 5 5 4 4 2 1 1 1 2 3 4 7 7 7 8 7 8 9 9 9 8 7 7 7 6 5 5 4 4 4 5 5
9 9 10 11 13 11 11 10 11 14 10 10 9 11 10 9 8 8 9 9 8 9 13 14 13 14 10 11 8 7 8 4 5 9 8 8 8 8 8 7 8 8 7 7 7 9 9 9 9 8 8 7 7 6 5 4 3 3 2 1 2 1 2 3 4 5 6 6 7 8 8 9 9 9 8 9 8 7 7 6 5 3 3 4 4 5
12 13 11 11 9 12 13 12 10 9 9 13 11 12 13 10 8 10 11 13 11 8 12 11 12 8 8 3 11 10 8 8 6 7 8 10 10 11 10 9 8 6 6 6 6 6 7 7 7 8 7 7 7 6 5 5 4 4 4 3 3 3 2 2 4 5 5 6 7 7 8 8 8 9 10 10 8 6 7 5 4 4 4 5 4 5
9 12 16 12 12 12 13 13 12 13 13 14 14 13 14 12 12 12 13 8 9 10 5 10 9 9 9 7 10 12 9 8 9 9 9 10 10 10 10 9 9 9 9 8 8 9 9 8 8 8 7 6 6 7 6 6 5 5 5 6 6 5 5 4 4 5 6 6 6 6 7 7 8 9 10 9 8 5 5 4 6 6 8 7 8 7
12 13 13 16 12 15 15 13 12 10 13 13 12 13 12 10 10 11 12 13 14 11 9 7 9 9 11 8 8 11 9 9 9 10 11 11 10 10 10 10 10 10 9 9 10 10 10 10 10 9 9 8 8 9 8 7 7 7 6 6 6 6 5 6 5 5 5 5 5 5 6 7 7 8 8 8 6 4 6 7 8 7 9 10 9 10
18 9 12 15 9 18 17 16 12 14 12 13 12 11 13 12 7 10 3 9 12 10 9 9 6 3 2 5 7 9 10 10 10 11 11 10 9 9 10 10 9 8 8 8 10 10 11 10 10 9 9 10 9 10 8 8 7 7 6 6 6 6 6 6 6 6 5 4 5 5 7 7 7 7 7 7 6 4 7 9 10 10 11 10 9 9
12 11 16 18 7 17 18 17 14 14 11 12 11 13 11 3 8 3 2 7 2 6 8 4 5 7 9 6 8 10 10 12 10 11 11 11 10 11 9 9 8 7 8 8 9 9 10 10 9 9 8 8 8 8 9 9 9 9 8 8 8 7 7 6 6 6 5 4 6 7 7 7 7 7 8 8 6 7 10 11 11 12 12 11 9 9
9 9 13 15 15 12 16 14 11 15 10 10 13 12 6 2 3 6 6 4 8 10 5 7 12 10 10 7 11 13 12 13 12 11 12 11 11 10 8 7 7 7 7 8 8 9 10 10 10 9 8 9 9 9 9 10 8 8 8 8 8 8 9 8 7 6 6 5 7 8 9 9 9 10 9 7 8 9 12 12 12 11 9 9 10 9
8 10 11 17 18 13 5 13 13 10 8 10 12 9 11 9 7 8 4 11 11 10 5 10 11 10 12 8 13 16 15 15 12 12 11 11 10 9 9 9 7 7 7 8 8 8 8 8 7 6 7 8 9 9 9 8 8 8 7 6 6 7 8 9 7 7 5 6 6 6 7 9 9 9 9 8 10 10 11 12 10 10 10 9 9 9
9 7 9 10 15 14 13 13 13 13 11 7 9 11 12 6 9 8 5 6 8 9 6 9 9 8 10 9 17 18 17 16 14 12 12 12 10 8 7 7 7 8 8 7 8 8 7 7 8 8 8 9 9 9 8 8 7 8 7 8 8 8 9 9 9 8 8 7 7 7 8 9 9 8 9 9 9 9 10 11 10 11 12 11 10 10
8 6 6 11 7 13 13 12 14 14 14 12 9 12 12 8 5 8 7 8 10 6 8 7 9 8 6 5 12 16 16 16 15 13 12 11 10 8 8 7 7 7 6 6 6 6 7 7 7 7 8 8 8 8 8 8 8 8 8 9 10 10 10 10 10 9 8 8 8 8 9 9 7 7 8 9 9 9 9 10 10 11 11 10 10 10
6 7 7 11 11 13 12 15 11 17 15 11 12 12 14 12 11 13 10 5 5 8 7 8 8 7 5 1 6 14 15 15 14 15 12 11 10 9 8 8 7 7 7 7 6 6 6 6 7 8 8 8 8 9 10 9 9 10 10 9 9 9 8 9 9 8 8 8 9 9 8 8 6 6 7 8 8 9 9 9 9 9 9 10 11 11
4 7 9 10 13 14 9 4 3 5 7 12 12 10 13 11 10 10 8 10 7 2 4 7 6 4 5 1 6 14 15 15 15 15 13 11 11 10 9 8 8 8 8 6 6 5 6 7 7 8 8 9 10 10 10 9 9 9 10 10 9 9 10 10 10 10 9 8 8 9 9 9 7 6 7 8 7 8 7 8 9 9 10 10 9 9
1 5 10 11 10 8 5 5 3 2 7 9 10 9 12 13 12 11 9 9 8 7 7 5 4 4 5 3 12 14 15 14 12 14 15 11 10 9 9 9 8 8 8 6 5 6 5 6 6 7 8 9 9 10 11 10 10 10 10 10 10 10 11 10 10 10 9 8 8 8 8 7 7 8 8 7 6 7 7 8 8 9 10 10 8 9
5 5 9 10 9 8 6 5 8 7 8 10 12 9 8 8 7 3 3 9 9 11 11 7 7 5 8 7 11 14 15 14 13 13 13 13 10 10 9 8 8 8 7 7 7 6 6 8 8 8 9 9 9 9 10 10 10 9 9 9 10 10 10 10 10 10 10 9 10 8 7 7 7 8 8 7 6 8 8 9 8 7 9 9 9 9
5 3 8 12 13 14 14 14 15 12 12 6 2 6 6 10 12 10 10 8 9 8 9 8 2 8 11 9 12 13 14 14 13 12 11 11 11 11 10 9 8 7 6 6 7 7 8 7 7 9 9 8 8 8 9 9 9 9 9 9 9 10 10 10 10 9 9 8 8 9 9 8 7 7 8 8 7 8 7 8 7 7 7 8 9 10
2 3 3 2 9 9 5 3 6 3 11 10 6 9 7 4 2 9 8 8 9 8 9 7 9 12 12 13 12 14 13 14 13 12 12 11 11 10 10 9 7 7 5 6 6 5 5 8 8 8 8 8 8 8 8 8 9 9 10 10 11 10 10 10 10 9 9 9 9 8 8 9 9 8 7 7 7 5 5 6 7 6 7 8 9 10
4 3 3 5 10 5 3 3 3 4 7 6 11 7 5 5 4 8 6 7 5 8 9 5 13 14 13 14 13 13 13 13 12 12 11 10 10 10 11 10 9 7 5 5 7 6 7 5 5 7 7 8 8 8 8 8 9 9 10 10 10 10 10 9 10 10 9 9 9 9 9 8 8 7 7 7 7 6 5 5 6 7 7 8 9 8
9 4 3 4 7 5 4 3 2 6 7 5 6 8 7 4 6 10 6 2 8 7 5 9 10 8 13 14 13 12 12 12 13 12 11 10 11 12 12 10 9 8 6 6 6 5 5 6 6 7 7 7 9 9 9 9 9 9 9 10 10 9 9 9 9 10 9 9 9 9 8 8 7 6 6 6 5 6 5 5 5 6 6 7 7 7
3 2 6 5 8 6 5 4 3 7 9 9 8 7 6 5 3 4 6 3 3 4 5 13 10 11 8 14 13 12 12 14 13 12 11 11 11 12 12 10 9 8 6 6 5 5 5 6 6 7 7 8 9 9 9 9 9 9 10 10 9 9 9 9 9 9 9 10 9 9 9 9 8 7 5 4 5 5 4 3 3 4 4 6 6 4
3 2 8 9 7 6 4 4 5 7 7 11 9 7 7 7 8 7 7 6 5 6 10 16 15 9 6 9 14 13 13 12 13 13 11 10 11 11 11 10 9 7 5 4 4 5 5 6 7 7 8 8 8 9 8 8 8 8 8 8 8 8 8 9 9 9 10 10 10 10 9 9 8 7 6 5 5 5 5 3 1 2 3 3 3 4
2 3 5 5 5 3 3 5 6 7 9 12 10 8 6 5 6 4 4 4 2 8 12 12 10 7 7 9 12 12 13 13 13 12 10 9 10 10 11 9 8 7 4 5 5 5 6 7 7 8 8 8 8 8 9 9 8 8 9 8 8 7 8 8 9 10 10 11 10 10 10 9 9 8 8 7 6 5 4 3 1 2 1 1 3 3
6 8 4 6 5 5 5 3 8 9 8 6 4 5 5 5 7 7 6 6 8 4 9 6 5 9 13 11 13 12 13 13 12 10 11 11 10 10 10 9 8 5 4 5 4 5 6 6 6 6 7 7 7 8 9 9 8 8 9 8 8 6 8 9 9 10 11 11 11 11 10 9 9 9 9 9 8 7 5 5 5 5 2 2 5 3
8 12 6 6 3 6 7 5 5 6 8 4 5 2 5 5 2 4 5 7 10 9 7 7 10 13 13 11 12 13 12 10 10 9 8 10 10 10 9 8 7 4 5 4 4 6 5 5 5 5 6 7 7 7 7 7 8 7 7 7 8 7 7 9 10 10 11 11 11 11 11 11 10 10 10 9 8 7 7 5 5 4 4 5 5 5
9 8 5 4 3 5 5 3 6 8 5 3 4 1 1 2 5 9 8 8 7 8 10 12 12 12 11 10 11 13 14 13 12 12 10 9 9 9 9 8 5 3 5 5 5 5 5 5 5 5 6 7 8 7 6 7 8 7 7 7 8 8 8 8 10 11 11 10 10 11 12 12 11 10 9 8 8 8 7 7 5 6 5 6 6 5
6 6 5 2 4 6 5 6 7 5 4 2 2 3 3 5 7 9 8 6 6 7 9 12 11 12 13 14 13 13 15 16 15 12 10 8 8 8 8 7 4 3 4 5 5 5 5 5 5 5 6 6 6 6 7 8 8 8 8 8 9 8 9 9 10 12 11 10 10 11 12 12 11 10 10 9 8 8 8 8 7 6 5 5 5 4
8 6 5 4 1 5 5 5 2 3 5 3 3 5 6 5 7 3 1 5 6 5 7 11 11 12 13 13 14 14 14 13 14 10 7 8 8 7 7 6 4 3 3 5 5 5 5 5 5 5 5 5 6 7 7 7 7 8 9 9 10 10 10 10 10 12 12 11 11 12 12 12 11 11 10 9 9 8 8 8 8 7 4 5 6 5
2 4 2 4 1 2 7 5 4 4 5 5 3 7 4 2 2 1 2 6 5 6 8 12 14 13 13 12 12 14 12 10 8 5 5 7 7 8 7 6 4 2 3 4 5 6 6 5 5 4 4 5 7 7 7 7 7 8 9 10 10 10 11 11 12 13 12 12 12 11 11 12 12 12 11 9 9 9 8 8 7 8 6 7 7 6
4 3 1 3 4 3 5 7 6 6 2 3 8 7 6 3 2 2 3 3 6 7 8 11 13 13 13 13 13 11 9 6 5 4 6 7 7 7 7 6 5 3 4 5 6 7 7 6 6 5 6 7 8 7 7 8 9 9 10 10 10 10 11 12 12 13 12 12 12 11 11 11 12 12 11 10 10 9 8 8 7 7 8 8 8 7
3 2 3 3 4 5 4 6 5 2 3 5 8 7 6 4 1 4 5 5 6 8 8 10 13 14 12 13 12 7 4 5 8 7 8 8 8 8 7 6 5 4 5 6 7 7 7 6 6 8 8 8 7 7 7 7 8 10 10 10 10 11 11 11 12 13 12 12 12 11 11 10 11 12 11 10 10 10 9 8 8 9 8 9 9 8
3 2 2 5 6 3 5 3 3 4 3 5 8 6 6 3 3 6 6 5 8 9 8 9 11 12 12 12 8 4 4 6 13 11 7 8 10 10 8 6 5 5 6 7 7 5 6 6 7 7 7 6 7 7 7 7 9 10 10 10 11 12 11 10 10 12 12 12 12 12 13 11 10 11 11 11 10 10 10 10 9 9 8 8 8 9
1 2 1 1 5 6 5 6 2 5 3 6 5 6 3 2 4 1 4 2 9 10 9 10 11 11 11 9 7 10 12 15 16 13 12 9 10 10 9 7 6 6 6 6 7 5 6 6 7 7 7 7 7 7 7 7 9 10 10 11 12 11 10 10 10 11 13 13 13 13 13 13 10 10 10 11 11 11 11 11 11 10 10 9 9 10
2 3 6 5 2 2 2 3 3 5 2 5 9 6 0 3 4 3 7 8 9 10 12 11 10 11 11 13 14 15 15 15 14 13 12 11 10 10 8 7 7 7 6 7 7 7 6 7 7 8 7 6 7 7 7 8 10 10 10 11 11 9 9 9 10 11 13 15 15 14 14 13 13 12 8 9 12 12 12 11 12 12 11 10 10 11
4 4 4 2 1 3 6 5 1 5 8 6 5 2 6 7 5 6 8 10 10 10 10 10 10 10 13 15 15 14 15 15 14 13 13 12 11 10 8 7 6 5 6 5 4 4 4 6 6 6 7 6 7 7 8 8 10 10 11 11 9 9 9 10 10 11 12 14 16 16 15 14 13 13 12 13 11 12 12 14 12 12 12 13 12 11
7 5 6 1 3 3 2 4 4 4 6 5 6 7 7 5 5 6 8 10 11 9 10 10 11 12 13 16 15 16 14 13 13 13 13 12 10 9 8 6 6 5 5 5 4 4 5 7 7 7 7 7 7 7 8 9 11 12 13 11 9 9 9 10 11 11 12 12 14 15 15 15 15 15 14 13 12 11 10 12 12 13 12 12 11 12
2 4 0 4 5 8 9 7 5 5 6 7 7 6 6 6 7 8 10 9 9 11 10 12 13 14 14 14 16 13 14 14 14 14 13 12 11 8 6 6 5 3 3 2 3 5 7 8 8 7 8 7 7 7 8 8 9 12 11 9 9 9 9 10 11 12 13 13 13 13 13 13 14 15 15 15 13 12 9 10 12 12 11 11 12 11
3 1 1 4 8 5 3 3 6 6 5 6 7 6 6 6 8 8 9 10 11 12 12 14 14 15 14 13 15 16 16 14 14 12 11 11 10 9 8 7 5 4 4 5 4 6 7 8 8 9 8 8 8 8 8 9 9 10 9 9 9 10 10 11 11 11 11 12 13 13 13 14 12 12 12 13 12 12 12 10 8 11 12 11 9 8
4 4 1 5 5 1 5 6 5 5 5 5 4 6 8 9 9 9 10 11 13 13 13 15 15 14 14 15 15 16 16 15 14 13 12 11 11 9 8 7 6 6 6 6 6 8 9 9 9 9 9 10 10 10 9 9 9 9 9 10 10 10 11 11 11 11 12 12 11 11 11 12 12 12 12 12 11 11 11 11 11 9 10 9 8 8
4 6 3 6 5 6 8 7 7 7 7 6 5 5 7 8 10 12 13 15 15 16 15 14 13 14 14 15 16 16 16 15 14 14 14 12 11 9 8 8 7 7 7 7 8 8 9 9 10 10 10 10 10 10 10 10 9 8 9 9 10 10 11 11 12 11 11 11 11 11 10 10 10 11 11 12 12 12 11 9 10 10 10 11 9 7
6 5 7 6 5 4 6 8 12 7 6 5 6 8 9 10 12 14 14 15 15 16 15 16 15 14 15 14 15 15 16 15 14 14 14 11 10 9 9 8 7 7 7 7 7 8 9 10 11 11 11 10 10 10 10 11 10 9 8 8 8 9 9 10 11 12 12 10 9 10 9 9 10 10 10 11 11 11 12 16 16 12 10 10 13 16
2 6 6 2 2 2 7 12 7 4 10 9 9 10 11 12 13 15 15 16 15 15 15 16 17 16 15 14 13 15 15 15 16 15 14 12 10 9 9 8 7 7 7 7 9 10 10 10 10 11 11 10 9 10 10 10 10 9 8 8 8 9 9 9 9 10 10 11 10 9 9 9 10 9 10 10 10 10 11 10 12 15 14 14 15 16
Wind_Direction
168 202 198 205 201 196 196 204 210 232 217 185 192 198 191 195 188 183 126 139 194 182 197 183 205 197 126 76 61 66 135 182 194 189 220 201 204 200 178 160 148 140 117 103 121 160 183 179 144 110 109 124 118 125 135 142 147 149 144 149 172 166 185 172 136 158 187 220 210 199 200 234 234 227 221 225 230 229 222 225 221 218 216 221 221 224
192 215 209 207 206 196 197 201 211 188 213 192 194 202 190 204 181 171 155 152 167 240 163 187 177 161 115 91 60 78 183 183 200 210 225 232 208 196 177 168 163 125 128 144 149 168 192 174 128 125 114 118 126 124 131 138 138 144 146 151 121 130 206 229 217 200 196 206 215 197 214 217 232 227 222 220 212 220 226 224 224 209 217 226 228 227
204 215 208 204 206 195 196 195 195 190 196 200 205 196 199 196 146 128 134 156 174 241 164 181 188 152 123 98 93 83 94 93 89 32 89 263 234 194 170 167 159 145 146 155 155 173 198 187 153 130 111 114 112 121 116 110 139 150 156 154 153 175 199 175 163 178 230 205 212 229 237 232 234 230 234 236 223 220 228 228 223 221 224 228 230 223
204 212 212 199 196 189 186 195 195 202 210 204 204 199 199 186 164 169 159 161 170 260 171 183 181 141 129 127 110 94 95 107 99 100 101 66 65 185 163 155 156 161 158 167 166 195 200 153 106 116 118 119 123 122 124 122 124 128 127 143 145 139 220 189 194 210 178 185 200 231 240 236 239 242 220 220 219 225 225 236 226 221 225 225 225 226
209 197 200 180 181 187 184 187 196 201 202 208 212 200 203 182 188 202 158 152 147 169 274 165 177 164 172 163 151 122 133 137 135 123 104 92 117 141 121 109 100 127 160 185 154 194 212 173 154 126 113 117 118 122 126 127 118 126 135 142 158 180 245 206 172 211 211 192 197 215 222 231 237 246 240 219 216 219 232 239 232 222 214 225 228 227
212 205 173 181 195 199 193 189 196 197 204 196 214 213 201 170 192 87 143 157 179 182 198 196 189 193 160 166 154 141 156 130 126 117 94 95 89 89 87 78 74 73 50 66 116 141 139 145 128 129 125 117 114 108 94 95 107 108 111 125 131 158 191 193 201 195 178 191 210 207 210 210 214 225 218 221 219 215 223 230 234 234 222 226 228 220
215 161 177 187 189 193 196 200 193 200 209 200 194 214 203 184 189 177 168 187 195 211 172 221 228 171 165 174 159 157 154 131 121 103 98 94 90 86 86 88 86 96 113 111 128 132 137 138 135 124 105 92 91 86 96 102 106 105 106 104 127 157 212 196 207 203 199 205 217 218 228 229 226 228 219 223 228 237 223 222 232 235 228 229 218 216
204 160 191 190 189 193 193 201 191 200 211 212 175 189 200 194 189 187 194 201 210 83 115 204 227 225 177 173 144 153 161 134 125 104 91 87 87 89 91 85 77 78 88 106 98 106 105 118 119 106 97 90 85 83 86 88 88 89 107 142 166 192 223 253 241 215 216 220 216 227 235 237 238 234 236 221 222 222 233 231 235 241 231 227 219 212
177 176 187 189 194 195 201 201 181 199 215 196 148 186 198 199 198 201 204 205 232 195 189 192 207 239 197 144 149 169 162 147 122 105 89 81 80 82 88 82 77 76 71 72 84 74 74 80 78 81 84 85 86 87 87 86 97 100 109 141 136 201 201 208 230 231 219 226 224 218 227 234 244 249 244 241 231 232 223 227 231 238 236 226 220 215
186 186 185 189 193 200 198 198 175 195 212 145 142 184 198 202 210 214 211 217 190 213 216 188 191 219 185 152 170 186 184 155 125 103 83 74 72 74 77 76 78 77 79 80 77 75 70 68 76 86 83 79 83 89 101 108 117 131 152 146 201 208 227 212 206 231 235 228 227 229 227 238 245 247 252 250 246 244 242 244 237 242 240 232 221 216
178 187 192 198 197 197 194 188 183 188 216 122 172 170 175 191 202 212 233 223 206 218 222 192 185 219 197 177 174 183 173 137 125 107 89 83 81 79 74 77 68 70 68 70 79 80 84 84 79 69 70 72 78 82 81 82 81 93 100 105 217 256 288 280 245 222 230 234 236 242 241 240 243 246 244 244 244 237 236 244 241 236 239 238 239 234
172 163 192 201 208 207 189 172 185 196 185 183 186 193 172 189 189 201 213 225 221 217 216 204 190 211 239 171 160 98 106 109 119 111 105 97 90 83 81 80 78 75 74 80 79 78 73 74 67 65 61 54 52 51 53 68 65 78 98 91 352 221 228 257 252 244 242 245 243 244 246 246 247 249 254 254 248 243 241 234 243 250 244 252 245 228
194 190 190 184 205 210 183 191 171 187 187 206 195 191 188 174 184 197 198 203 212 214 204 165 187 198 231 90 133 132 121 102 91 107 112 109 98 92 84 78 73 73 70 64 72 72 66 60 60 59 55 52 43 39 37 34 17 9 358 343 308 326 346 282 276 272 261 249 243 242 248 253 254 255 253 250 252 246 251 236 234 222 223 228 246 244
192 193 185 188 191 202 202 199 172 194 196 203 201 191 191 184 186 199 195 199 206 201 83 173 165 214 122 116 118 129 104 100 106 103 107 103 99 93 89 83 77 67 58 60 64 65 61 56 57 56 57 54 47 38 37 37 29 21 11 3 357 340 343 318 289 270 262 257 256 254 255 254 251 249 249 251 241 226 241 243 226 214 223 224 225 215
189 185 194 189 197 184 209 212 178 195 186 204 208 203 205 198 189 192 195 193 195 187 139 119 172 190 194 131 141 117 118 114 112 121 111 107 106 102 93 84 76 69 61 59 63 61 57 54 48 43 38 39 40 39 37 32 31 24 20 5 351 338 322 317 312 292 273 278 275 266 251 251 254 254 251 249 249 224 229 231 233 223 225 225 216 209
202 201 173 187 197 178 204 214 196 189 190 200 205 210 212 216 183 211 210 208 193 183 161 177 188 21 125 109 126 132 128 132 123 118 119 110 106 98 86 78 68 61 57 56 63 61 56 52 49 42 39 37 35 38 36 34 29 22 16 359 342 326 318 310 310 301 317 276 273 279 266 262 262 269 281 276 261 233 226 229 226 226 226 229 216 209
190 207 162 175 178 181 196 198 197 192 195 180 204 208 206 255 209 116 105 40 54 164 189 130 169 124 114 149 145 154 151 130 134 127 116 108 97 84 76 79 73 70 60 56 54 56 57 54 48 47 41 41 38 33 27 23 23 22 17 11 356 350 338 329 316 302 285 292 277 263 261 256 242 233 232 240 242 230 236 233 229 225 224 223 216 210
190 181 158 176 182 187 196 190 194 195 215 165 203 193 129 19 297 195 179 151 188 199 167 179 188 166 174 176 170 165 161 146 142 131 119 114 100 93 96 85 79 75 73 67 59 53 58 56 47 41 41 37 32 26 25 24 21 16 13 10 354 353 347 341 336 324 311 266 251 262 261 255 249 245 237 229 224 227 235 231 229 233 227 219 215 215
221 181 172 190 188 171 172 194 191 204 251 213 201 170 186 179 195 205 213 180 191 206 170 190 203 195 201 159 164 179 170 152 140 136 124 113 107 110 107 98 89 81 70 56 54 54 51 50 37 27 21 25 24 22 19 14 12 11 7 359 357 356 350 343 340 337 317 305 296 287 283 276 265 252 244 228 229 227 232 235 233 231 230 223 219 218
209 218 151 184 195 163 187 192 194 188 196 258 222 179 208 210 202 184 199 186 198 199 156 178 189 207 221 153 185 173 175 155 145 140 129 117 116 114 105 97 84 68 60 59 62 61 53 39 33 26 20 23 23 18 16 14 8 8 6 0 0 356 356 353 346 340 333 331 313 301 293 286 276 275 267 243 236 232 235 240 233 230 230 222 215 217
197 245 191 162 163 162 191 194 199 188 184 185 201 194 187 220 207 201 186 206 202 193 190 173 186 214 175 103 169 169 164 149 145 129 121 115 109 102 98 92 83 73 73 71 67 62 55 48 39 37 33 31 30 28 23 20 14 11 11 6 8 2 356 353 348 339 337 327 319 313 301 300 296 278 270 258 238 235 233 242 236 230 226 217 212 216
202 196 198 149 183 191 194 189 216 196 186 191 198 195 187 192 186 195 184 206 234 200 190 173 188 163 77 265 156 154 143 140 132 121 117 117 114 109 100 95 96 87 71 67 63 57 51 43 44 43 39 34 32 27 24 22 19 15 14 10 5 3 358 350 347 338 333 329 321 316 311 311 305 283 268 261 245 237 240 242 242 233 229 221 215 213
264 206 183 177 181 193 164 122 4 341 205 199 199 191 193 195 205 195 192 180 203 187 187 187 198 128 53 82 126 121 135 137 130 126 122 119 112 107 104 98 89 83 75 59 40 38 49 48 43 39 29 29 28 27 22 20 19 15 14 11 5 359 2 351 343 337 333 330 328 329 324 319 308 290 272 266 262 253 240 245 243 234 228 221 218 214
184 210 176 179 167 108 113 129 55 271 194 201 214 220 191 201 201 206 209 166 185 153 196 184 205 108 120 144 112 124 126 127 129 130 125 120 116 113 107 101 91 86 80 61 47 39 26 26 22 23 22 22 23 24 25 18 18 17 15 12 7 3 359 353 345 339 336 334 332 328 327 320 306 291 282 272 280 259 246 248 244 234 233 224 219 215
206 189 195 171 175 183 146 160 180 177 207 214 204 195 229 207 212 236 247 180 210 178 205 188 195 154 121 111 118 120 123 122 126 127 127 125 125 120 110 97 91 89 79 57 58 45 34 31 20 19 17 18 20 24 26 19 19 18 12 10 4 356 352 351 346 335 339 344 339 335 335 331 319 299 284 282 259 258 249 244 241 237 236 230 225 222
228 162 205 187 183 184 187 190 187 182 196 171 164 174 194 209 195 192 210 192 219 170 219 221 119 103 126 133 132 130 125 119 118 116 111 115 122 120 113 105 96 91 74 54 64 43 34 27 22 17 14 16 17 18 18 18 19 13 9 7 3 5 359 352 344 341 341 345 341 343 344 340 325 318 309 298 277 260 258 261 248 241 239 241 239 224
125 56 8 313 214 203 182 85 19 300 166 189 168 182 168 196 194 226 215 197 210 171 199 207 139 147 147 156 143 142 135 125 122 120 122 123 117 112 110 106 99 93 75 62 58 40 32 33 21 12 12 11 10 9 3 6 10 12 11 10 11 7 0 353 346 346 349 353 348 343 343 335 333 324 308 302 296 284 266 257 258 253 243 236 243 231
160 146 55 64 56 52 42 32 345 319 171 154 155 148 148 180 209 211 201 208 161 168 199 118 141 152 167 160 155 147 141 132 128 125 125 124 122 118 113 105 102 95 71 65 52 40 32 21 15 16 10 10 8 5 3 5 14 15 13 10 6 5 1 353 350 355 1 358 353 349 345 339 329 325 319 318 317 310 303 291 280 268 256 244 237 237
190 172 113 96 72 76 57 65 61 87 105 110 120 140 151 161 193 203 182 112 177 217 200 151 167 149 147 159 146 141 136 129 131 128 124 122 120 118 113 107 103 99 79 66 58 46 32 21 19 17 14 12 7 9 6 7 14 17 16 16 12 360 355 344 344 350 355 357 356 347 342 340 336 329 322 318 319 309 302 298 289 273 257 246 249 236
148 100 144 127 108 74 65 80 137 123 119 106 94 95 108 129 103 145 117 85 46 66 130 142 110 88 113 141 135 132 124 120 116 115 118 124 121 116 113 110 107 106 84 67 54 50 34 28 22 19 17 14 9 7 6 7 10 14 18 16 11 359 356 355 350 353 0 6 360 352 349 347 348 342 340 335 327 330 322 290 282 299 301 258 249 271
263 123 162 146 113 78 73 109 107 120 126 104 87 94 101 98 95 86 99 77 99 108 128 120 116 108 31 94 108 106 111 113 112 112 116 119 119 115 112 110 108 108 97 83 75 54 36 33 23 17 17 12 6 7 8 5 6 8 9 13 8 4 1 7 360 360 8 7 4 3 356 358 2 9 8 360 7 3 1 23 342 333 323 331 72 62
131 112 200 210 147 120 116 114 124 121 112 96 86 74 81 113 107 63 68 10 348 141 134 130 134 141 133 116 112 112 117 117 116 117 117 113 110 110 106 109 113 111 93 78 62 49 40 35 26 14 5 1 2 12 11 7 7 9 7 5 2 4 5 9 8 7 9 8 6 9 5 6 15 13 11 18 26 40 31 13 347 142 98 99 107 92
139 143 190 203 175 126 140 146 132 142 131 131 89 66 69 84 88 100 82 48 9 334 145 159 88 110 136 133 119 111 111 110 110 115 117 108 105 107 109 111 114 100 85 71 63 56 44 33 24 9 359 355 360 2 8 5 7 4 2 1 8 7 12 15 17 14 11 11 8 10 15 11 20 22 19 21 22 25 32 29 23 15 14 60 68 94
161 154 185 194 170 131 145 156 166 186 188 152 54 91 359 74 98 113 84 41 33 20 68 52 106 122 130 136 126 125 114 105 105 102 106 118 119 114 110 112 111 103 97 89 75 65 50 33 18 9 2 351 349 356 350 3 1 353 3 5 13 13 17 22 24 20 17 14 11 10 14 18 20 28 28 24 25 26 29 42 53 43 31 43 57 76
170 166 154 173 150 148 135 161 178 199 171 48 212 60 144 128 84 95 95 73 76 86 97 100 113 127 127 124 114 108 106 103 96 90 90 101 108 114 117 118 106 110 103 104 81 64 50 33 20 6 355 353 346 347 358 12 3 357 12 19 19 20 16 23 27 26 22 14 3 8 8 13 21 27 34 35 35 36 32 34 44 57 57 53 41 32
151 154 125 103 110 120 165 182 192 173 43 166 116 137 90 120 119 121 91 84 86 98 108 112 111 108 109 108 108 112 112 105 87 73 78 88 102 115 121 111 101 99 97 82 80 65 48 39 23 7 352 340 342 4 14 11 359 6 21 21 26 27 26 25 29 29 22 11 6 8 10 15 18 27 33 39 43 43 43 43 44 43 40 51 61 31
168 140 159 118 271 168 183 181 80 93 150 152 146 185 187 148 178 217 112 137 136 130 121 126 124 118 115 116 119 123 118 102 83 71 74 91 97 98 106 101 89 74 76 77 71 69 56 52 39 2 334 347 5 20 18 3 4 17 20 23 26 27 29 28 29 28 25 18 14 12 10 14 19 25 32 36 40 45 46 45 48 44 22 64 50 47
18 216 148 160 186 256 179 138 146 181 207 170 148 119 158 73 349 124 129 123 155 149 141 139 135 133 127 130 135 139 140 101 85 84 91 100 103 105 101 100 93 74 85 89 86 79 71 58 44 20 359 11 32 25 19 16 19 27 28 24 23 26 26 25 27 27 24 20 16 14 13 17 21 24 31 37 41 46 48 49 44 44 39 66 68 59
75 62 132 235 151 196 185 187 192 199 91 75 140 147 136 166 168 155 250 142 146 156 156 145 141 143 143 146 150 154 157 145 129 135 128 125 114 110 108 100 84 74 65 71 77 80 69 58 47 39 32 28 33 27 29 35 35 35 35 29 26 26 27 24 24 26 25 24 21 19 21 22 23 25 31 37 40 42 46 45 49 46 51 60 71 74
132 167 166 166 168 194 198 209 204 45 95 137 135 145 153 119 110 236 225 179 156 159 157 150 149 149 149 151 151 155 170 159 151 147 140 124 116 109 105 100 87 82 77 72 67 66 66 59 56 43 30 26 25 24 26 35 49 45 39 34 32 31 28 23 25 28 30 34 32 27 25 24 29 32 32 36 36 40 44 47 51 52 58 62 65 69
148 153 216 192 196 164 214 191 86 109 87 122 143 142 142 193 247 204 222 86 148 144 153 145 145 146 147 148 157 124 31 69 117 120 120 121 114 103 97 87 65 54 63 60 50 58 77 67 57 48 32 23 19 26 26 40 51 50 45 40 37 32 25 21 28 36 37 41 43 39 35 33 36 39 38 41 43 40 41 43 47 45 46 56 62 69
119 134 100 198 184 185 188 196 162 78 61 129 118 154 138 208 193 158 71 164 134 139 133 136 136 138 141 135 115 101 108 109 119 127 127 116 106 101 97 88 75 61 49 51 44 46 79 82 74 61 45 25 19 22 30 43 56 53 47 43 39 31 25 30 34 40 44 45 48 49 47 38 25 39 45 43 44 46 44 41 42 47 48 53 66 72
140 189 181 171 79 52 185 173 166 200 123 197 145 158 3 282 61 110 123 122 133 130 133 129 129 130 122 112 112 117 118 118 119 120 118 115 106 98 90 73 57 49 43 48 48 34 50 66 58 53 46 34 23 22 27 49 59 59 54 46 38 34 35 36 40 46 49 51 53 53 54 51 41 40 31 42 47 48 43 41 42 40 43 45 49 55
27 258 173 122 322 198 176 189 137 53 124 140 182 145 102 55 102 132 127 123 124 128 125 124 125 122 118 121 122 120 120 119 117 120 119 116 110 100 83 71 57 58 67 58 54 42 58 86 86 73 48 31 31 32 36 49 57 56 53 46 36 39 42 43 46 49 53 57 58 59 58 57 52 51 45 46 48 51 49 49 48 44 44 51 56 57
35 12 357 71 53 343 28 62 108 139 117 89 64 91 95 101 107 125 119 130 133 129 132 122 121 120 122 122 121 123 120 120 121 124 119 117 109 99 85 69 54 36 30 40 44 64 73 72 69 69 65 50 40 35 43 49 54 53 54 47 44 46 45 47 50 54 55 55 60 63 63 59 58 56 53 45 44 48 47 46 45 49 41 47 54 59
45 17 8 85 86 102 78 69 96 118 122 92 62 75 110 113 112 124 127 125 126 129 131 126 126 125 125 126 122 122 123 126 121 119 114 108 104 98 106 106 86 68 50 45 68 79 86 83 77 71 63 53 47 52 44 47 50 55 54 53 54 55 54 55 56 57 58 57 55 57 60 61 58 55 53 54 49 44 35 49 53 54 48 45 50 55
62 297 221 93 141 184 107 110 93 110 115 96 82 82 89 114 119 123 120 123 125 124 116 123 127 128 129 128 123 124 125 124 119 117 115 113 111 106 93 85 74 65 59 69 69 94 90 88 85 80 75 69 62 59 56 52 53 53 55 55 57 57 54 56 61 61 60 61 64 59 54 53 51 53 50 50 51 46 40 32 34 55 51 45 41 40
147 229 129 119 133 329 103 127 118 115 118 103 102 116 115 118 119 120 123 123 122 120 120 124 127 124 128 126 126 125 126 127 124 124 120 114 110 107 105 102 97 91 81 77 77 84 90 86 81 75 70 68 65 63 60 56 52 49 50 57 58 60 58 55 52 60 64 62 59 59 62 65 60 60 59 51 48 45 43 40 32 36 42 30 21 42
85 187 169 164 119 96 101 120 127 120 89 91 106 106 116 124 122 123 125 123 122 121 121 121 121 127 127 128 129 128 127 127 125 124 119 115 106 98 94 89 81 73 68 66 61 73 95 92 84 78 74 71 67 65 62 59 55 49 51 55 61 62 61 59 58 58 62 64 66 65 61 62 64 67 69 67 62 56 42 29 44 53 50 35 16 10
177 167 121 138 136 168 177 167 158 141 153 127 115 120 122 124 125 122 123 122 125 124 124 122 121 123 125 128 131 129 126 125 125 124 118 110 103 99 93 89 79 71 73 74 73 75 86 93 95 90 84 77 70 67 63 59 56 52 53 56 65 69 68 67 65 62 58 57 61 66 65 66 67 67 69 74 78 80 76 62 51 44 56 53 41 46
193 137 169 193 224 196 133 152 177 68 115 121 124 121 123 129 130 127 126 124 124 124 126 126 126 126 125 126 126 126 126 128 127 125 119 114 111 107 106 103 96 96 93 93 94 87 85 90 89 83 79 76 73 71 66 59 53 51 51 54 60 63 66 67 68 68 67 64 57 45 63 69 71 69 73 76 79 80 82 81 69 58 56 64 59 52